This is the latest recevied weather packets stored in our database for station/object IK6IHU-3. If no packets are shown the sender has not sent any weather packets the latest 1 day(s).
| Time | Temp. | Humidity | Pressure | Rain* | Wind** | Luminosity | Snow |
|---|---|---|---|---|---|---|---|
| 1777966702 | 16.11° C | 65% | 1014.5 hPa | 0 mm | 0 m/s | 0 W/m² | - |
| 1777966643 | 16.11° C | 65% | 1014.6 hPa | 0 mm | 0.45 m/s, 83° | 0 W/m² | - |
| 1777966582 | 16.11° C | 65% | 1014.6 hPa | 0 mm | 0.45 m/s, 89° | 0 W/m² | - |
| 1777966522 | 16.11° C | 64% | 1014.6 hPa | 0 mm | 0.45 m/s, 89° | 0 W/m² | - |
| 1777966463 | 16.11° C | 64% | 1014.6 hPa | 0 mm | 0.45 m/s, 89° | 0 W/m² | - |
| 1777966402 | 16.11° C | 64% | 1014.5 hPa | 0 mm | 0.45 m/s, 85° | 0 W/m² | - |
| 1777966342 | 16.11° C | 65% | 1014.8 hPa | 0 mm | 0 m/s | 0 W/m² | - |
| 1777966283 | 16.11° C | 64% | 1014.6 hPa | 0 mm | 0 m/s | 0 W/m² | - |
| 1777966223 | 15.56° C | 64% | 1014.7 hPa | 0 mm | 0.45 m/s, 66° | 0 W/m² | - |
| 1777966163 | 15.56° C | 65% | 1014.9 hPa | 0 mm | 0.45 m/s, 63° | 0 W/m² | - |
| 1777966102 | 16.11° C | 67% | 1014.6 hPa | 0 mm | 0 m/s | 0 W/m² | - |
| 1777966042 | 16.11° C | 67% | 1014.7 hPa | 0 mm | 0 m/s | 0 W/m² | - |
| 1777965983 | 16.11° C | 66% | 1014.5 hPa | 0 mm | 0 m/s | 0 W/m² | - |
| 1777965923 | 16.11° C | 67% | 1014.7 hPa | 0 mm | 0 m/s | 0 W/m² | - |
| 1777965862 | 16.11° C | 66% | 1014.6 hPa | 0 mm | 0.45 m/s, 52° | 0 W/m² | - |
| 1777965802 | 16.11° C | 66% | 1014.7 hPa | 0 mm | 0 m/s | 0 W/m² | - |
| 1777965742 | 16.11° C | 64% | 1014.5 hPa | 0 mm | 0.89 m/s, 47° | 0 W/m² | - |
| 1777965682 | 16.11° C | 63% | 1014.6 hPa | 0 mm | 0.89 m/s, 44° | 0 W/m² | - |
| 1777965622 | 16.11° C | 63% | 1014.6 hPa | 0 mm | 0.89 m/s, 44° | 0 W/m² | - |
| 1777965563 | 15.56° C | 62% | 1014.4 hPa | 0 mm | 0.89 m/s, 41° | 0 W/m² | - |
| 1777965502 | 16.11° C | 64% | 1014.2 hPa | 0 mm | 0.89 m/s, 38° | 0 W/m² | - |
| 1777965442 | 16.11° C | 64% | 1014.5 hPa | 0 mm | 0.89 m/s, 42° | 0 W/m² | - |
| 1777965382 | 16.11° C | 63% | 1014.4 hPa | 0 mm | 0.89 m/s, 43° | 0 W/m² | - |
| 1777965323 | 16.11° C | 63% | 1014.7 hPa | 0 mm | 0.89 m/s, 43° | 0 W/m² | - |
| 1777965262 | 16.11° C | 64% | 1014.5 hPa | 0 mm | 0.89 m/s, 48° | 0 W/m² | - |
* Rain latest hour (hover to see other rain measurements)
** Current wind speed in m/s (hover to see current wind gust speed)